| time (UTC) | temp F | wind direction | speed MPH | gust MPH | rain 1hr in | rain 24hr in | rain mn in | humidity % | barometer mb |
| 20260904220720 | 89 | 51 | 0.0 | 0.0 | 0.00 | 0.00 | 0.00 | 61 | 1026.2 |
| 20260904220218 | 89 | 35 | 0.0 | 0.0 | 0.00 | 0.00 | 0.00 | 60 | 1026.2 |
| 20260904215656 | 90 | 49 | 0.0 | 0.0 | 0.00 | 0.00 | 0.00 | 60 | 1026.1 |
| 20260904215130 | 90 | 59 | 0.0 | 0.0 | 0.00 | 0.00 | 0.00 | 61 | 1026.0 |
| 20260904214607 | 89 | 60 | 0.0 | 0.0 | 0.00 | 0.00 | 0.00 | 61 | 1026.0 |
| 20260904214322 | 90 | 40 | 0.0 | 0.0 | 0.00 | 0.00 | 0.00 | 61 | 1025.9 |
| 20260904213550 | 90 | 27 | 0.0 | 0.0 | 0.00 | 0.00 | 0.00 | 63 | 1026.0 |
| 20260904213048 | 89 | 22 | 0.0 | 0.0 | 0.00 | 0.00 | 0.00 | 63 | 1026.0 |
| 20260904212548 | 89 | 32 | 0.0 | 0.0 | 0.00 | 0.00 | 0.00 | 62 | 1026.0 |
| 20260904212047 | 88 | 115 | 0.0 | 0.0 | 0.00 | 0.00 | 0.00 | 65 | 1026.0 |
| 20260904211818 | 88 | 47 | 0.0 | 0.0 | 0.00 | 0.00 | 0.00 | 65 | 1026.1 |
| 20260904211320 | 88 | 39 | 0.0 | 0.0 | 0.00 | 0.00 | 0.00 | 64 | 1026.1 |
| 20260904210801 | 89 | 60 | 0.0 | 1.0 | 0.00 | 0.00 | 0.00 | 64 | 1026.1 |
| 20260904210028 | 88 | 42 | 0.0 | 1.0 | 0.00 | 0.00 | 0.00 | 66 | 1026.1 |
| 20260904205528 | 88 | 38 | 0.0 | 0.0 | 0.00 | 0.00 | 0.00 | 64 | 1026.2 |
| 20260904205005 | 88 | 37 | 0.0 | 0.0 | 0.00 | 0.00 | 0.00 | 66 | 1026.2 |
| 20260904204721 | 87 | 46 | 0.0 | 0.0 | 0.00 | 0.00 | 0.00 | 66 | 1026.2 |
| 20260904203950 | 87 | 41 | 0.0 | 0.0 | 0.00 | 0.00 | 0.00 | 66 | 1026.2 |
| 20260904203716 | 88 | 42 | 0.0 | 0.0 | 0.00 | 0.00 | 0.00 | 66 | 1026.1 |
| 20260904202948 | 89 | 5 | 0.0 | 0.0 | 0.00 | 0.00 | 0.00 | 65 | 1026.2 |
| 20260904202426 | 88 | 5 | 0.0 | 0.0 | 0.00 | 0.00 | 0.00 | 66 | 1026.2 |
| 20260904201904 | 88 | 62 | 0.0 | 0.0 | 0.00 | 0.00 | 0.00 | 65 | 1026.1 |
| 20260904201338 | 88 | 35 | 0.0 | 0.0 | 0.00 | 0.00 | 0.00 | 67 | 1026.1 |
| 20260904200838 | 87 | 40 | 0.0 | 1.0 | 0.00 | 0.00 | 0.00 | 67 | 1026.1 |
| 20260904200341 | 87 | 40 | 0.0 | 0.0 | 0.00 | 0.00 | 0.00 | 66 | 1026.1 |
| 20260904195815 | 87 | 49 | 0.0 | 1.0 | 0.00 | 0.00 | 0.00 | 67 | 1026.1 |
| 20260904195528 | 88 | 44 | 0.0 | 1.0 | 0.00 | 0.00 | 0.00 | 67 | 1026.1 |
| 20260904194727 | 87 | 28 | 0.0 | 1.0 | 0.00 | 0.00 | 0.00 | 67 | 1026.2 |
| 20260904194439 | 88 | 37 | 0.0 | 2.0 | 0.00 | 0.00 | 0.00 | 67 | 1026.2 |
| 20260904193925 | 89 | 65 | 0.0 | 2.0 | 0.00 | 0.00 | 0.00 | 65 | 1026.2 |
| 20260904193157 | 89 | 66 | 0.0 | 1.0 | 0.00 | 0.00 | 0.00 | 65 | 1026.2 |
| 20260904192644 | 88 | 312 | 0.0 | 1.0 | 0.00 | 0.00 | 0.00 | 68 | 1026.2 |
| 20260904192147 | 88 | 24 | 0.0 | 0.0 | 0.00 | 0.00 | 0.00 | 69 | 1026.2 |
| 20260904191621 | 87 | 34 | 0.0 | 6.0 | 0.00 | 0.00 | 0.00 | 67 | 1026.2 |
| 20260904191053 | 87 | 30 | 0.0 | 6.0 | 0.00 | 0.00 | 0.00 | 69 | 1026.3 |
| 20260904190548 | 87 | 42 | 0.0 | 5.0 | 0.00 | 0.00 | 0.00 | 70 | 1026.3 |
| 20260904190040 | 87 | 107 | 0.0 | 5.0 | 0.00 | 0.00 | 0.00 | 69 | 1026.2 |
| 20260904185536 | 88 | 50 | 0.0 | 5.0 | 0.00 | 0.00 | 0.00 | 67 | 1026.2 |
| 20260904185306 | 88 | 69 | 0.0 | 1.0 | 0.00 | 0.00 | 0.00 | 69 | 1026.2 |
| 20260904184508 | 88 | 83 | 0.0 | 1.0 | 0.00 | 0.00 | 0.00 | 66 | 1026.2 |
| 20260904183943 | 89 | 343 | 0.0 | 0.0 | 0.00 | 0.00 | 0.00 | 67 | 1026.2 |
| 20260904183440 | 88 | 5 | 0.0 | 3.0 | 0.00 | 0.00 | 0.00 | 68 | 1026.2 |
| 20260904183158 | 89 | 44 | 0.0 | 3.0 | 0.00 | 0.00 | 0.00 | 68 | 1026.2 |
| 20260904182422 | 88 | 13 | 0.0 | 7.0 | 0.00 | 0.00 | 0.00 | 69 | 1026.2 |
| 20260904181915 | 88 | 29 | 0.0 | 7.0 | 0.00 | 0.00 | 0.00 | 67 | 1026.1 |
| 20260904181412 | 89 | 12 | 0.0 | 2.0 | 0.00 | 0.00 | 0.00 | 67 | 1026.1 |
| 20260904180910 | 89 | 68 | 0.0 | 2.0 | 0.00 | 0.00 | 0.00 | 66 | 1026.1 |
| 20260904180406 | 89 | 99 | 0.0 | 2.0 | 0.00 | 0.00 | 0.00 | 66 | 1026.1 |
| 20260904180129 | 89 | 77 | 0.0 | 1.0 | 0.00 | 0.00 | 0.00 | 67 | 1026.1 |
| 20260904175602 | 89 | 71 | 0.0 | 1.0 | 0.00 | 0.00 | 0.00 | 67 | 1026.1 |
| 20260904175058 | 89 | 15 | 0.0 | 0.0 | 0.00 | 0.01 | 0.00 | 67 | 1026.1 |
| 20260904174324 | 88 | 34 | 0.0 | 0.0 | 0.00 | 0.01 | 0.00 | 67 | 1026.0 |
| 20260904174051 | 89 | 60 | 0.0 | 0.0 | 0.00 | 0.02 | 0.00 | 68 | 1026.1 |
| 20260904173254 | 88 | 84 | 0.0 | 0.0 | 0.00 | 0.02 | 0.00 | 68 | 1025.9 |
| 20260904173014 | 89 | 42 | 0.0 | 0.0 | 0.00 | 0.02 | 0.00 | 67 | 1025.9 |
| 20260904172242 | 89 | 36 | 0.0 | 0.0 | 0.00 | 0.02 | 0.00 | 67 | 1025.9 |
| 20260904171715 | 89 | 63 | 0.0 | 0.0 | 0.00 | 0.02 | 0.00 | 68 | 1025.8 |
| 20260904171210 | 89 | 42 | 0.0 | 0.0 | 0.00 | 0.02 | 0.00 | 69 | 1025.8 |
| 20260904170709 | 90 | 33 | 0.0 | 0.0 | 0.00 | 0.02 | 0.00 | 68 | 1025.8 |
| 20260904170204 | 90 | 59 | 0.0 | 1.0 | 0.00 | 0.02 | 0.00 | 69 | 1025.7 |
| 20260904165703 | 90 | 46 | 0.0 | 1.0 | 0.00 | 0.02 | 0.00 | 68 | 1025.6 |
| 20260904165205 | 90 | 54 | 0.0 | 2.0 | 0.00 | 0.02 | 0.00 | 67 | 1025.7 |
| 20260904164636 | 90 | 30 | 0.0 | 2.0 | 0.00 | 0.02 | 0.00 | 68 | 1025.6 |
| 20260904164107 | 91 | 31 | 0.0 | 0.0 | 0.00 | 0.02 | 0.00 | 65 | 1025.6 |
| 20260904163604 | 90 | 35 | 0.0 | 0.0 | 0.00 | 0.02 | 0.00 | 68 | 1025.6 |
| 20260904163103 | 89 | 35 | 0.0 | 1.0 | 0.00 | 0.02 | 0.00 | 68 | 1025.5 |
| 20260904162604 | 89 | 42 | 0.0 | 0.0 | 0.00 | 0.02 | 0.00 | 67 | 1025.4 |
| 20260904162101 | 89 | 55 | 0.0 | 0.0 | 0.00 | 0.02 | 0.00 | 69 | 1025.4 |
| 20260904161557 | 89 | 38 | 0.0 | 0.0 | 0.00 | 0.02 | 0.00 | 69 | 1025.4 |
| 20260904161033 | 89 | 39 | 0.0 | 0.0 | 0.00 | 0.02 | 0.00 | 69 | 1025.3 |
| 20260904160506 | 89 | 232 | 0.0 | 0.0 | 0.00 | 0.02 | 0.00 | 69 | 1025.3 |
| 20260904160008 | 89 | 232 | 0.0 | 0.0 | 0.00 | 0.02 | 0.00 | 70 | 1025.2 |
| 20260904155508 | 88 | 232 | 0.0 | 0.0 | 0.00 | 0.02 | 0.00 | 71 | 1025.1 |
| 20260904154944 | 88 | 232 | 0.0 | 0.0 | 0.00 | 0.02 | 0.00 | 71 | 1025.2 |
| 20260904154416 | 87 | 232 | 0.0 | 0.0 | 0.00 | 0.02 | 0.00 | 72 | 1025.2 |
| 20260904153913 | 87 | 231 | 0.0 | 0.0 | 0.00 | 0.02 | 0.00 | 73 | 1025.2 |
| 20260904153413 | 86 | 231 | 0.0 | 0.0 | 0.00 | 0.02 | 0.00 | 73 | 1025.1 |
| 20260904153130 | 86 | 231 | 0.0 | 0.0 | 0.00 | 0.02 | 0.00 | 73 | 1025.1 |
| 20260904152357 | 86 | 231 | 0.0 | 0.0 | 0.00 | 0.02 | 0.00 | 75 | 1025.0 |
| 20260904151854 | 85 | 231 | 0.0 | 0.0 | 0.00 | 0.02 | 0.00 | 76 | 1025.0 |
| 20260904151350 | 84 | 231 | 0.0 | 0.0 | 0.00 | 0.02 | 0.00 | 77 | 1024.9 |
| 20260904151058 | 84 | 231 | 0.0 | 0.0 | 0.00 | 0.02 | 0.00 | 78 | 1024.9 |
| 20260904150543 | 83 | 231 | 0.0 | 0.0 | 0.00 | 0.02 | 0.00 | 79 | 1024.8 |
| 20260904145814 | 83 | 231 | 0.0 | 0.0 | 0.00 | 0.02 | 0.00 | 79 | 1024.8 |
| 20260904145306 | 82 | 231 | 0.0 | 0.0 | 0.00 | 0.02 | 0.00 | 80 | 1024.8 |
| 20260904144803 | 82 | 231 | 0.0 | 0.0 | 0.00 | 0.02 | 0.00 | 82 | 1024.6 |
| 20260904144234 | 81 | 231 | 0.0 | 0.0 | 0.00 | 0.02 | 0.00 | 82 | 1024.8 |
| 20260904143730 | 81 | 231 | 0.0 | 0.0 | 0.00 | 0.02 | 0.00 | 84 | 1024.8 |
| 20260904143228 | 80 | 231 | 0.0 | 0.0 | 0.00 | 0.02 | 0.00 | 85 | 1024.8 |
| 20260904142724 | 80 | 232 | 0.0 | 0.0 | 0.00 | 0.02 | 0.00 | 86 | 1024.9 |
| 20260904142227 | 79 | 232 | 0.0 | 0.0 | 0.00 | 0.02 | 0.00 | 87 | 1024.8 |
| 20260904141722 | 78 | 240 | 0.0 | 0.0 | 0.00 | 0.02 | 0.00 | 88 | 1024.8 |
| 20260904141453 | 78 | 240 | 0.0 | 0.0 | 0.00 | 0.02 | 0.00 | 88 | 1024.8 |
| 20260904140652 | 78 | 227 | 0.0 | 0.0 | 0.00 | 0.02 | 0.00 | 89 | 1024.6 |
| 20260904140150 | 77 | 227 | 0.0 | 0.0 | 0.00 | 0.02 | 0.00 | 90 | 1024.6 |
| 20260904135622 | 77 | 227 | 0.0 | 0.0 | 0.00 | 0.02 | 0.00 | 91 | 1024.5 |
| 20260904135356 | 76 | 227 | 0.0 | 0.0 | 0.00 | 0.02 | 0.00 | 91 | 1024.6 |
| 20260904134556 | 76 | 244 | 0.0 | 0.0 | 0.00 | 0.02 | 0.00 | 91 | 1024.8 |
| 20260904134055 | 76 | 219 | 0.0 | 0.0 | 0.00 | 0.02 | 0.00 | 92 | 1024.9 |
| 20260904133526 | 76 | 219 | 0.0 | 0.0 | 0.00 | 0.02 | 0.00 | 92 | 1024.8 |
| 20260904133257 | 76 | 219 | 0.0 | 0.0 | 0.00 | 0.02 | 0.00 | 92 | 1024.9 |
| 20260904132456 | 75 | 214 | 0.0 | 0.0 | 0.00 | 0.02 | 0.00 | 92 | 1024.8 |
| 20260904131949 | 75 | 221 | 0.0 | 0.0 | 0.00 | 0.02 | 0.00 | 92 | 1024.6 |
| 20260904131423 | 75 | 221 | 0.0 | 0.0 | 0.00 | 0.02 | 0.00 | 92 | 1024.5 |
| 20260904130856 | 75 | 221 | 0.0 | 0.0 | 0.00 | 0.02 | 0.00 | 93 | 1024.5 |
| 20260904130330 | 75 | 221 | 0.0 | 0.0 | 0.00 | 0.02 | 0.00 | 92 | 1024.4 |
| 20260904125805 | 75 | 223 | 0.0 | 0.0 | 0.00 | 0.02 | 0.00 | 92 | 1024.5 |
| 20260904125236 | 75 | 223 | 0.0 | 0.0 | 0.00 | 0.02 | 0.00 | 92 | 1024.3 |
| 20260904125006 | 75 | 223 | 0.0 | 0.0 | 0.00 | 0.02 | 0.00 | 92 | 1024.3 |
| 20260904124204 | 75 | 222 | 0.0 | 0.0 | 0.00 | 0.02 | 0.00 | 92 | 1024.2 |
| 20260904123651 | 74 | 222 | 0.0 | 0.0 | 0.00 | 0.02 | 0.00 | 92 | 1024.3 |
| 20260904123150 | 74 | 222 | 0.0 | 0.0 | 0.00 | 0.02 | 0.00 | 92 | 1024.1 |
| 20260904122648 | 74 | 222 | 0.0 | 0.0 | 0.00 | 0.02 | 0.00 | 91 | 1024.1 |
| 20260904122419 | 75 | 222 | 0.0 | 0.0 | 0.00 | 0.02 | 0.00 | 91 | 1024.0 |
| 20260904121921 | 75 | 222 | 0.0 | 0.0 | 0.00 | 0.02 | 0.00 | 91 | 1024.0 |
| 20260904121126 | 75 | 222 | 0.0 | 0.0 | 0.00 | 0.02 | 0.00 | 91 | 1023.9 |
| 20260904120603 | 75 | 222 | 0.0 | 0.0 | 0.00 | 0.02 | 0.00 | 91 | 1023.8 |
| 20260904115601 | 75 | 222 | 0.0 | 0.0 | 0.00 | 0.02 | 0.00 | 91 | 1023.7 |
| 20260904115100 | 75 | 222 | 0.0 | 0.0 | 0.00 | 0.02 | 0.00 | 90 | 1023.7 |
| 20260904114550 | 75 | 222 | 0.0 | 0.0 | 0.00 | 0.02 | 0.00 | 90 | 1023.6 |
| 20260904114320 | 75 | 222 | 0.0 | 0.0 | 0.00 | 0.02 | 0.00 | 90 | 1023.6 |
| 20260904113817 | 75 | 222 | 0.0 | 0.0 | 0.00 | 0.02 | 0.00 | 90 | 1023.6 |
| 20260904113048 | 75 | 222 | 0.0 | 0.0 | 0.00 | 0.02 | 0.00 | 90 | 1023.4 |
| 20260904112544 | 76 | 216 | 0.0 | 0.0 | 0.00 | 0.02 | 0.00 | 89 | 1023.5 |
| 20260904112046 | 76 | 216 | 0.0 | 0.0 | 0.00 | 0.02 | 0.00 | 89 | 1023.5 |
| 20260904111525 | 76 | 216 | 0.0 | 0.0 | 0.00 | 0.02 | 0.00 | 89 | 1023.5 |
| 20260904110955 | 76 | 216 | 0.0 | 0.0 | 0.00 | 0.02 | 0.00 | 89 | 1023.7 |
| 20260904110453 | 76 | 216 | 0.0 | 0.0 | 0.00 | 0.02 | 0.00 | 89 | 1023.6 |
| 20260904110223 | 76 | 216 | 0.0 | 0.0 | 0.00 | 0.02 | 0.00 | 89 | 1023.6 |
| 20260904105451 | 76 | 216 | 0.0 | 0.0 | 0.00 | 0.02 | 0.00 | 89 | 1023.6 |
| 20260904105225 | 76 | 215 | 0.0 | 0.0 | 0.00 | 0.02 | 0.00 | 89 | 1023.5 |
| 20260904104444 | 76 | 222 | 0.0 | 0.0 | 0.00 | 0.02 | 0.00 | 89 | 1023.5 |
| 20260904103944 | 76 | 225 | 0.0 | 0.0 | 0.00 | 0.02 | 0.00 | 89 | 1023.5 |
| 20260904103442 | 76 | 238 | 0.0 | 0.0 | 0.00 | 0.02 | 0.00 | 89 | 1023.4 |
| 20260904102922 | 76 | 205 | 0.0 | 0.0 | 0.00 | 0.02 | 0.00 | 89 | 1023.5 |
| 20260904102400 | 76 | 227 | 0.0 | 0.0 | 0.00 | 0.02 | 0.00 | 89 | 1023.5 |
| 20260904101836 | 76 | 245 | 0.0 | 0.0 | 0.00 | 0.02 | 0.00 | 90 | 1023.6 |
| 20260904101327 | 76 | 231 | 0.0 | 0.0 | 0.00 | 0.02 | 0.00 | 90 | 1023.5 |
| 20260904101051 | 76 | 234 | 0.0 | 0.0 | 0.00 | 0.02 | 0.00 | 90 | 1023.4 |
| 20260904100318 | 76 | 241 | 0.0 | 0.0 | 0.00 | 0.02 | 0.00 | 90 | 1023.4 |
| 20260904095815 | 76 | 225 | 0.0 | 0.0 | 0.00 | 0.02 | 0.00 | 91 | 1023.3 |
| 20260904095315 | 76 | 230 | 0.0 | 0.0 | 0.00 | 0.02 | 0.00 | 91 | 1023.3 |
| 20260904095025 | 76 | 224 | 0.0 | 0.0 | 0.00 | 0.02 | 0.00 | 91 | 1023.3 |
| 20260904094225 | 76 | 219 | 0.0 | 0.0 | 0.00 | 0.02 | 0.00 | 91 | 1023.4 |
| 20260904093709 | 76 | 221 | 0.0 | 0.0 | 0.00 | 0.02 | 0.00 | 91 | 1023.3 |
| 20260904093149 | 76 | 221 | 0.0 | 0.0 | 0.00 | 0.02 | 0.00 | 91 | 1023.3 |
| 20260904092650 | 76 | 221 | 0.0 | 0.0 | 0.00 | 0.02 | 0.00 | 91 | 1023.2 |
| 20260904092149 | 76 | 221 | 0.0 | 0.0 | 0.00 | 0.02 | 0.00 | 91 | 1023.2 |
| 20260904091625 | 76 | 221 | 0.0 | 0.0 | 0.00 | 0.02 | 0.00 | 91 | 1023.2 |
| 20260904091345 | 76 | 221 | 0.0 | 0.0 | 0.00 | 0.02 | 0.00 | 90 | 1023.0 |
| 20260904090615 | 76 | 221 | 0.0 | 0.0 | 0.00 | 0.02 | 0.00 | 90 | 1023.1 |
| 20260904090049 | 76 | 228 | 0.0 | 0.0 | 0.00 | 0.02 | 0.00 | 90 | 1023.1 |
| 20260904085548 | 76 | 229 | 0.0 | 0.0 | 0.00 | 0.02 | 0.00 | 90 | 1023.1 |
| 20260904085024 | 76 | 229 | 0.0 | 0.0 | 0.00 | 0.02 | 0.00 | 91 | 1023.0 |
| 20260904084503 | 76 | 229 | 0.0 | 0.0 | 0.00 | 0.02 | 0.00 | 91 | 1023.0 |
| 20260904083952 | 76 | 209 | 0.0 | 0.0 | 0.00 | 0.02 | 0.00 | 91 | 1023.0 |
| 20260904083428 | 76 | 209 | 0.0 | 0.0 | 0.00 | 0.02 | 0.00 | 90 | 1022.9 |
| 20260904083158 | 76 | 209 | 0.0 | 0.0 | 0.00 | 0.02 | 0.00 | 90 | 1022.9 |
| 20260904082425 | 76 | 209 | 0.0 | 0.0 | 0.00 | 0.02 | 0.00 | 90 | 1022.9 |
| 20260904081903 | 76 | 209 | 0.0 | 0.0 | 0.00 | 0.02 | 0.00 | 90 | 1022.9 |
| 20260904081858 | 76 | 209 | 0.0 | 0.0 | 0.00 | 0.02 | 0.00 | 90 | 1022.9 |
| 20260904081111 | 76 | 209 | 0.0 | 0.0 | 0.00 | 0.02 | 0.00 | 90 | 1022.9 |
| 20260904080339 | 76 | 209 | 0.0 | 0.0 | 0.00 | 0.02 | 0.00 | 90 | 1022.8 |
| 20260904075814 | 77 | 209 | 0.0 | 0.0 | 0.00 | 0.02 | 0.00 | 90 | 1022.8 |
| 20260904075245 | 77 | 209 | 0.0 | 0.0 | 0.00 | 0.02 | 0.00 | 90 | 1022.9 |
| 20260904074743 | 77 | 209 | 0.0 | 0.0 | 0.00 | 0.02 | 0.00 | 90 | 1022.9 |
| 20260904074231 | 77 | 209 | 0.0 | 0.0 | 0.00 | 0.02 | 0.00 | 89 | 1022.9 |
| 20260904074226 | 77 | 209 | 0.0 | 0.0 | 0.00 | 0.02 | 0.00 | 90 | 1022.9 |
| 20260904073838 | 77 | 209 | 0.0 | 0.0 | 0.00 | 0.02 | 0.00 | 89 | 1022.9 |
| 20260904072927 | 77 | 209 | 0.0 | 0.0 | 0.00 | 0.02 | 0.00 | 89 | 1022.9 |
| 20260904072153 | 77 | 209 | 0.0 | 0.0 | 0.00 | 0.02 | 0.00 | 89 | 1022.9 |
| 20260904071652 | 77 | 209 | 0.0 | 0.0 | 0.00 | 0.02 | 0.00 | 89 | 1022.9 |
| 20260904071136 | 77 | 209 | 0.0 | 0.0 | 0.00 | 0.02 | 0.00 | 89 | 1022.9 |
| 20260904070638 | 77 | 209 | 0.0 | 0.0 | 0.00 | 0.02 | 0.00 | 89 | 1022.9 |
| 20260904070109 | 77 | 209 | 0.0 | 0.0 | 0.00 | 0.02 | 0.00 | 89 | 1022.9 |
| 20260904065607 | 77 | 209 | 0.0 | 0.0 | 0.00 | 0.02 | 0.00 | 89 | 1022.9 |
| 20260904065039 | 77 | 209 | 0.0 | 0.0 | 0.00 | 0.02 | 0.00 | 89 | 1022.9 |
| 20260904064538 | 77 | 188 | 0.0 | 0.0 | 0.00 | 0.02 | 0.00 | 89 | 1022.9 |
| 20260904064248 | 77 | 185 | 0.0 | 0.0 | 0.00 | 0.02 | 0.00 | 89 | 1022.9 |
| 20260904063519 | 77 | 196 | 0.0 | 0.0 | 0.00 | 0.02 | 0.00 | 88 | 1022.9 |
| 20260904062959 | 77 | 191 | 0.0 | 0.0 | 0.00 | 0.02 | 0.00 | 88 | 1022.9 |
| 20260904062421 | 78 | 191 | 0.0 | 0.0 | 0.00 | 0.02 | 0.00 | 88 | 1022.9 |
| 20260904061919 | 78 | 194 | 0.0 | 0.0 | 0.00 | 0.02 | 0.00 | 88 | 1023.0 |
| 20260904061351 | 78 | 194 | 0.0 | 0.0 | 0.00 | 0.02 | 0.00 | 88 | 1023.0 |
| 20260904060847 | 78 | 194 | 0.0 | 0.0 | 0.00 | 0.02 | 0.00 | 88 | 1023.0 |
| 20260904060338 | 78 | 197 | 0.0 | 0.0 | 0.00 | 0.02 | 0.00 | 88 | 1022.9 |
| 20260904060104 | 78 | 191 | 0.0 | 0.0 | 0.00 | 0.02 | 0.00 | 87 | 1023.0 |
| 20260904055327 | 78 | 191 | 0.0 | 0.0 | 0.00 | 0.02 | 0.00 | 87 | 1023.0 |
| 20260904054824 | 78 | 191 | 0.0 | 0.0 | 0.00 | 0.02 | 0.00 | 87 | 1023.1 |
| 20260904054817 | 78 | 191 | 0.0 | 0.0 | 0.00 | 0.02 | 0.00 | 87 | 1023.0 |
| 20260904053814 | 78 | 191 | 0.0 | 0.0 | 0.00 | 0.02 | 0.00 | 87 | 1022.9 |
| 20260904053549 | 78 | 183 | 0.0 | 0.0 | 0.00 | 0.02 | 0.00 | 87 | 1022.9 |
| 20260904052751 | 78 | 184 | 0.0 | 0.0 | 0.00 | 0.02 | 0.00 | 86 | 1022.9 |
| 20260904052456 | 78 | 184 | 0.0 | 0.0 | 0.00 | 0.02 | 0.00 | 86 | 1022.9 |
| 20260904051708 | 78 | 187 | 0.0 | 5.0 | 0.00 | 0.02 | 0.00 | 86 | 1022.8 |
| 20260904051209 | 78 | 187 | 0.0 | 5.0 | 0.00 | 0.02 | 0.00 | 86 | 1022.9 |
| 20260904050707 | 78 | 189 | 0.0 | 1.0 | 0.00 | 0.02 | 0.00 | 86 | 1022.8 |
| 20260904050207 | 78 | 192 | 0.0 | 1.0 | 0.00 | 0.02 | 0.00 | 86 | 1022.8 |
| 20260904045910 | 79 | 182 | 0.0 | 0.0 | 0.00 | 0.02 | 0.02 | 85 | 1022.9 |
| 20260904045114 | 79 | 181 | 0.0 | 3.0 | 0.00 | 0.02 | 0.02 | 85 | 1022.8 |
| 20260904044545 | 79 | 196 | 0.0 | 3.0 | 0.00 | 0.02 | 0.02 | 85 | 1022.8 |
| 20260904044043 | 79 | 192 | 0.0 | 1.0 | 0.00 | 0.02 | 0.02 | 85 | 1022.8 |
| 20260904043515 | 79 | 188 | 0.0 | 0.0 | 0.00 | 0.02 | 0.02 | 85 | 1022.8 |
| 20260904043005 | 79 | 184 | 0.0 | 0.0 | 0.00 | 0.02 | 0.02 | 84 | 1022.8 |
| 20260904042503 | 79 | 192 | 0.0 | 4.0 | 0.00 | 0.02 | 0.02 | 84 | 1022.8 |
| 20260904041937 | 79 | 182 | 0.0 | 4.0 | 0.00 | 0.02 | 0.02 | 84 | 1022.7 |
| 20260904041409 | 79 | 191 | 0.0 | 3.0 | 0.00 | 0.02 | 0.02 | 84 | 1022.7 |
| 20260904040908 | 79 | 178 | 0.0 | 3.0 | 0.00 | 0.02 | 0.02 | 84 | 1022.8 |
| 20260904040341 | 79 | 188 | 0.0 | 3.0 | 0.00 | 0.02 | 0.02 | 83 | 1022.8 |
| 20260904035833 | 79 | 194 | 0.0 | 0.0 | 0.00 | 0.02 | 0.02 | 83 | 1022.8 |
| 20260904035332 | 79 | 190 | 0.0 | 1.0 | 0.00 | 0.02 | 0.02 | 83 | 1022.8 |
| 20260904034803 | 79 | 182 | 0.0 | 7.0 | 0.00 | 0.02 | 0.02 | 83 | 1022.8 |
| 20260904034301 | 80 | 190 | 0.0 | 2.0 | 0.00 | 0.02 | 0.02 | 82 | 1022.8 |
| 20260904033729 | 80 | 178 | 0.0 | 2.0 | 0.00 | 0.02 | 0.02 | 82 | 1022.8 |
| 20260904033231 | 80 | 184 | 0.0 | 2.0 | 0.00 | 0.02 | 0.02 | 82 | 1022.7 |
| 20260904032733 | 80 | 188 | 0.0 | 2.0 | 0.00 | 0.02 | 0.02 | 81 | 1022.8 |
| 20260904032225 | 80 | 196 | 0.0 | 3.0 | 0.00 | 0.02 | 0.02 | 81 | 1022.8 |
| 20260904031724 | 80 | 202 | 0.0 | 8.0 | 0.00 | 0.02 | 0.02 | 81 | 1022.9 |
| 20260904031155 | 80 | 190 | 0.0 | 8.0 | 0.00 | 0.02 | 0.02 | 81 | 1022.9 |
| 20260904030653 | 80 | 188 | 0.0 | 7.0 | 0.00 | 0.02 | 0.02 | 81 | 1022.9 |
| 20260904030125 | 80 | 182 | 0.0 | 7.0 | 0.00 | 0.02 | 0.02 | 81 | 1022.8 |
| 20260904025614 | 80 | 177 | 0.0 | 4.0 | 0.00 | 0.02 | 0.02 | 81 | 1022.9 |
| 20260904025048 | 80 | 180 | 0.0 | 0.0 | 0.00 | 0.02 | 0.02 | 81 | 1022.8 |
| 20260904024535 | 80 | 180 | 0.0 | 0.0 | 0.00 | 0.02 | 0.02 | 80 | 1022.8 |
| 20260904024034 | 80 | 190 | 0.0 | 0.0 | 0.00 | 0.02 | 0.02 | 80 | 1022.8 |
| 20260904023505 | 80 | 190 | 0.0 | 0.0 | 0.00 | 0.02 | 0.02 | 80 | 1022.8 |
| 20260904023004 | 80 | 187 | 0.0 | 0.0 | 0.00 | 0.02 | 0.02 | 80 | 1022.7 |
| 20260904022656 | 80 | 186 | 0.0 | 0.0 | 0.00 | 0.02 | 0.02 | 79 | 1022.7 |
| 20260904022532 | 80 | 186 | 0.0 | 0.0 | 0.00 | 0.02 | 0.02 | 79 | 1022.8 |
| 20260904021418 | 80 | 186 | 0.0 | 0.0 | 0.00 | 0.02 | 0.02 | 79 | 1022.6 |
| 20260904020855 | 81 | 186 | 0.0 | 0.0 | 0.00 | 0.02 | 0.02 | 78 | 1022.6 |
| 20260904020608 | 81 | 186 | 0.0 | 0.0 | 0.00 | 0.02 | 0.02 | 78 | 1022.6 |
| 20260904015836 | 81 | 186 | 0.0 | 0.0 | 0.00 | 0.02 | 0.02 | 78 | 1022.5 |
| 20260904015335 | 81 | 186 | 0.0 | 0.0 | 0.00 | 0.02 | 0.02 | 77 | 1022.5 |
| 20260904014833 | 81 | 186 | 0.0 | 0.0 | 0.00 | 0.02 | 0.02 | 77 | 1022.5 |
| 20260904014305 | 82 | 186 | 0.0 | 0.0 | 0.00 | 0.02 | 0.02 | 77 | 1022.5 |
| 20260904013804 | 82 | 186 | 0.0 | 0.0 | 0.00 | 0.02 | 0.02 | 76 | 1022.5 |
| 20260904013243 | 82 | 186 | 0.0 | 0.0 | 0.00 | 0.02 | 0.02 | 76 | 1022.5 |
| 20260904012742 | 82 | 186 | 0.0 | 0.0 | 0.00 | 0.02 | 0.02 | 75 | 1022.5 |
| 20260904012244 | 82 | 186 | 0.0 | 0.0 | 0.00 | 0.02 | 0.02 | 75 | 1022.4 |
| 20260904011719 | 82 | 186 | 0.0 | 0.0 | 0.00 | 0.02 | 0.02 | 74 | 1022.2 |
| 20260904011151 | 83 | 186 | 0.0 | 1.0 | 0.00 | 0.02 | 0.02 | 74 | 1022.1 |
| 20260904010650 | 83 | 186 | 0.0 | 1.0 | 0.00 | 0.02 | 0.02 | 73 | 1022.1 |
| 20260904010122 | 83 | 187 | 0.0 | 1.0 | 0.00 | 0.02 | 0.02 | 73 | 1022.1 |
| 20260904005547 | 83 | 205 | 0.0 | 1.0 | 0.00 | 0.02 | 0.02 | 72 | 1022.1 |
| 20260904005029 | 83 | 200 | 0.0 | 0.0 | 0.00 | 0.02 | 0.02 | 72 | 1022.0 |
| 20260904004528 | 84 | 200 | 0.0 | 3.0 | 0.00 | 0.02 | 0.02 | 71 | 1022.0 |
| 20260904004023 | 84 | 200 | 0.0 | 3.0 | 0.00 | 0.02 | 0.02 | 71 | 1022.0 |
| 20260904003521 | 84 | 194 | 0.0 | 0.0 | 0.00 | 0.02 | 0.02 | 70 | 1022.0 |
| 20260904003225 | 84 | 202 | 0.0 | 0.0 | 0.00 | 0.02 | 0.02 | 70 | 1022.0 |
| 20260904002452 | 84 | 205 | 0.0 | 0.0 | 0.00 | 0.02 | 0.02 | 69 | 1022.0 |
| 20260904001950 | 85 | 193 | 0.0 | 0.0 | 0.00 | 0.02 | 0.02 | 69 | 1022.0 |
| 20260904001453 | 85 | 193 | 0.0 | 0.0 | 0.00 | 0.02 | 0.02 | 68 | 1022.1 |
| 20260904000928 | 85 | 193 | 0.0 | 0.0 | 0.00 | 0.02 | 0.02 | 68 | 1022.0 |
| 20260904000359 | 85 | 188 | 0.0 | 0.0 | 0.00 | 0.02 | 0.02 | 67 | 1022.0 |
| 20260903235858 | 85 | 188 | 0.0 | 3.0 | 0.00 | 0.02 | 0.02 | 67 | 1022.0 |
| 20260903235401 | 85 | 169 | 0.0 | 5.0 | 0.00 | 0.02 | 0.02 | 67 | 1022.1 |
| 20260903235126 | 85 | 180 | 0.0 | 5.0 | 0.00 | 0.02 | 0.02 | 66 | 1022.1 |
| 20260903234400 | 85 | 192 | 0.0 | 4.0 | 0.00 | 0.02 | 0.02 | 66 | 1022.1 |
| 20260903233842 | 86 | 180 | 0.0 | 10.0 | 0.00 | 0.02 | 0.02 | 65 | 1022.1 |
| 20260903233346 | 86 | 182 | 1.0 | 10.0 | 0.00 | 0.02 | 0.02 | 65 | 1022.2 |
| 20260903232824 | 86 | 120 | 1.0 | 9.0 | 0.00 | 0.02 | 0.02 | 64 | 1022.2 |
| 20260903232325 | 86 | 235 | 1.0 | 11.0 | 0.00 | 0.02 | 0.02 | 64 | 1022.1 |
| 20260903231823 | 87 | 188 | 1.0 | 11.0 | 0.00 | 0.02 | 0.02 | 63 | 1022.0 |
| 20260903231322 | 87 | 168 | 2.0 | 14.0 | 0.00 | 0.02 | 0.02 | 63 | 1021.8 |
| 20260903230753 | 87 | 225 | 2.0 | 10.0 | 0.00 | 0.02 | 0.02 | 62 | 1021.7 |
| 20260903230520 | 87 | 112 | 1.0 | 16.0 | 0.00 | 0.02 | 0.02 | 61 | 1021.5 |
| 20260903225743 | 88 | 183 | 0.0 | 6.0 | 0.00 | 0.02 | 0.02 | 60 | 1021.5 |
| 20260903225242 | 88 | 349 | 0.0 | 2.0 | 0.00 | 0.02 | 0.02 | 60 | 1021.3 |
| 20260903224947 | 89 | 165 | 0.0 | 9.0 | 0.00 | 0.02 | 0.02 | 59 | 1021.5 |
| 20260903224214 | 89 | 178 | 0.0 | 9.0 | 0.00 | 0.02 | 0.02 | 59 | 1021.4 |
| 20260903223714 | 88 | 198 | 1.0 | 13.0 | 0.00 | 0.02 | 0.02 | 60 | 1021.3 |
| 20260903223159 | 88 | 169 | 2.0 | 13.0 | 0.00 | 0.02 | 0.02 | 59 | 1021.4 |
| 20260903222704 | 88 | 163 | 3.0 | 17.0 | 0.00 | 0.02 | 0.02 | 59 | 1021.5 |
| 20260903222143 | 88 | 182 | 3.0 | 17.0 | 0.00 | 0.02 | 0.02 | 58 | 1021.5 |
| 20260903221641 | 88 | 243 | 2.0 | 14.0 | 0.00 | 0.02 | 0.02 | 59 | 1021.5 |